Data Trawler - Search Events

Please login if you have access to particular applications.
Username:
Password:

Search for events by voyage, equipment, action or within comments.

Event count for each voyage, equipment or action is shown in ().

Voyage(s)
Elog Set(s)
Equipment(s)
Action
Search for - within subject, event identifier, comments etc.(case insensitive)
Highlight matches

Events ordered by start time:- Click on column header to sort. Use link on 'When' to see full details. Use the CSV button at the bottom to export data.

Survey When (UTC) LatitudeLongitude InstrumentIdentifierActionLogSubject / Comments
IN2015_C01 2015-10-22 11:48 [view ] -43.2588 147.4957 Gravity Meter [view] Other GSM_in2015_c01 gravity meter check - ok
IN2015_C01 2015-10-22 13:33 [view ] -43.5950 147.5150 Gravity Meter [view] caution GSM_in2015_c01 rough weather - turn ST tracking off and clamp instrument large variation in beam volts and gravity appears to track acceleration
IN2015_C01 2015-10-24 20:26 [view ] -42.9200 147.3833 Gravity Meter [view] Start GSM_in2015_c01 Gravity meter unclamped, ST tracking off
IN2015_C01 2015-10-25 10:08 [view ] -43.3434 147.4606 Gravity Meter [view] Other GSM_in2015_c01 gravity meter checked
IN2015_C01 2015-10-25 11:49 [view ] -43.5891 147.2733 Gravity Meter [view] Other GSM_in2015_c01 check
IN2015_C01 2015-10-25 14:00 [view ] -43.6888 146.7622 Gravity Meter [view] Stop GSM_in2015_c01 turn of tracking and clamp meter large variations in beam volts - due to rough weather
IN2015_C01 2015-10-25 18:17 [view ] -43.5150 147.7933 Gravity Meter [view] Start GSM_in2015_c01 Gravity meter unclamped
IN2015_C01 2015-10-25 18:20 [view ] -43.4817 147.7500 Gravity Meter [view] Other GSM_in2015_c01 ST tracking off
IN2015_C01 2015-10-26 09:33 [view ] -41.4187 143.3723 Gravity Meter [view] Other GSM_in2015_c01 gravity meter still clamped but gimball still free - checked ok
IN2015_C01 2015-10-26 12:06 [view ] -41.0382 142.9955 Gravity Meter [view] Other GSM_in2015_c01 checked - still clamped
IN2015_C01 2015-10-26 17:59 [view ] -40.1556 142.1299 Gravity Meter [view] Other GSM_in2015_c01 Changed beam scale factor in Gravity Meter software Initial value: 6.048397 Changed to 5.9011321968 Monitoring unit
IN2015_C01 2015-10-26 19:58 [view ] -39.8737 141.8560 Gravity Meter [view] Other GSM_in2015_c01 Changed beam scale factor in Gravity Meter software Initial value: 5.9011321968 Changed to 6.048397 Monitoring unit
IN2015_C01 2015-10-26 21:14 [view ] -39.6650 141.6533 Gravity Meter [view] Other GSM_in2015_c01 Screen dump of gravity data taken
IN2015_C01 2015-10-27 04:06 [view ] -38.6963 140.7228 Gravity Meter [view] Other GSM_in2015_c01 restarted Sealogger on SBP120 PC
IN2015_C01 2015-10-27 09:06 [view ] -37.9499 139.8855 Gravity Meter [view] Other GSM_in2015_c01 screen dump
IN2015_C01 2015-10-27 13:06 [view ] -37.4831 139.1164 Gravity Meter [view] Other GSM_in2015_c01 sweet as
IN2015_C01 2015-10-28 06:46 [view ] -36.7091 136.5149 Gravity Meter [view] Other GSM_in2015_c01 check -ok
IN2015_C01 2015-10-30 06:29 [view ] -36.1052 Gravity Meter [view] Start GSM_in2015_c01 sealogger restarted on SBP120 Sea logger hadnt been active on SBP 120 since 28 Oct 16:52; therefore gap in delta to current data
IN2015_C01 2015-11-25 13:56 [view ] -34.7178 132.5827 Gravity Meter [view] warning GSM_in2015_c01 tracking off and clamped spring tension meter "whirring"
IN2015_C01 2015-11-25 19:37 [view ] Gravity Meter [view] Stop GSM_in2015_c01 Gravity meter fully clamped in rough weather
IN2015_C01 2015-11-26 18:52 [view ] -34.7354 133.0692 Gravity Meter [view] Start GSM_in2015_c01 Gravity meter started and logging
IN2015_C02 2015-11-30 20:59 [view ] -36.7500 135.8880 Gravity Meter [view] Stop GSM_in2015_c02 Gravity meter clamped and shut down due to rough weather
IN2015_C02 2015-12-02 17:38 [view ] -36.5955 136.0138 Gravity Meter [view] Start GSM_in2015_c02 Gravity meter turned back on (calmer weather)
IN2015_E06 2015-10-09 09:59 [view ] -43.6515 148.0120 Gravity Meter [view] Stop GSM_in2015_e06 Gravity Meter off and clamped
IN2015_E06 2015-10-11 03:42 [view ] -42.9428 147.3800 Gravity Meter [view] Start GSM_in2015_e06 Start Gravity Meter
IN2015_E06 2015-10-14 08:14 [view ] -42.5743 149.7183 Gravity Meter [view] Other GSM_in2015_e06 Gravity meter control module changed
IN2015_E06 2015-10-14 08:44 [view ] -42.5750 149.7133 Gravity Meter [view] Other GSM_in2015_e06 Gravity meter powered on with spare control module
IN2015_E06 2015-10-14 09:25 [view ] -42.5767 149.7083 Gravity Meter [view] Stop GSM_in2015_e06 Gravity meter off- switched control unit did not solve ST problem
IN2015_T02 2015-06-21 23:21 [view ] -33.8682 151.2205 Gravity Meter [view] Start GSM_in2015_t02
IN2016_E01 2016-08-20 18:31 [view ] -43.7194 148.7668 Gravity Meter [view] Stop GSM_in2016_e01 Gravity meter clamped due to rough weather
IN2016_E01 2016-08-21 02:00 [view ] -43.2328 148.6312 Gravity Meter [view] Start GSM_in2016_e01 Gravity meter turned back on First time booting up the gravity meter would not unclamp. The computer was rebooted, and then the meter unclamped and started normal.
IN2016_T02 2016-08-24 23:30 [view ] -42.8863 147.3387 Gravity Meter [view] Start GSM_in2016_t02 Gravity meter turned on
IN2016_V01 2016-02-05 06:05 [view ] -52.9156 72.9373 Gravity Meter [view] Outage GSM_in2016_v01 Approx half-hour outage for gravity meter as it was clamped to re-equilibrate.
IN2016_V01 2016-02-14 02:55 [view ] -50.6680 80.8713 Gravity Meter [view] Other GSM_in2016_v01 TC at >4500; beam (volts) >4.0; physical check and watch. resumed normal function
IN2016_V02 2016-03-14 04:20 [view ] -43.2270 147.4882 Gravity Meter [view] Start GSM_in2016_v02
IN2016_V02 2016-03-14 13:13 [view ] -44.2118 146.4241 Gravity Meter [view] Stop GSM_in2016_v02 time to put it to bed for the night
IN2016_V02 2016-03-15 02:45 [view ] -45.8970 143.8661 Gravity Meter [view] Outage GSM_in2016_v02 failure to re-start Restart attempt from over night shutdown. Does not want to be stable and always trying to tilt to starboard. Tested power and that was ok. After 3 attempts at start, shut it down and waiting on HQ advice.
IN2016_V02 2016-03-16 17:05 [view ] -46.7534 141.9307 Gravity Meter [view] Other GSM_in2016_v02 Fixed Gyro and restarted The cross-track gyro was replaced with a spare unit and meter restarted. For 20 minutes it remained stable. Logging continued for 30 minutes before night shutdown.
IN2016_V02 2016-03-16 17:28 [view ] -46.7530 141.9300 Gravity Meter [view] Stop GSM_in2016_v02 shutdown for night
IN2016_V02 2016-03-17 01:38 [view ] -47.2546 141.9634 Gravity Meter [view] Start GSM_in2016_v02 back on line
IN2016_V02 2016-03-17 02:33 [view ] -47.1815 141.9229 Gravity Meter [view] caution GSM_in2016_v02 erratic beam voltage machine clamped - appears not to be stable. sea conditions are not too bad. screen shot taken in2016_v02_2016-03-17
IN2016_V02 2016-03-17 04:28 [view ] -46.9515 141.8451 Gravity Meter [view] Start GSM_in2016_v02 restart restarted to see if stable - beam voltage seems settled about zero
IN2016_V02 2016-03-17 04:43 [view ] -46.9197 141.8345 Gravity Meter [view] Stop GSM_in2016_v02 sea conditions too lumpy beam voltage maximing at +5
IN2016_V02 2016-03-17 09:07 [view ] -46.4468 141.6107 Gravity Meter [view] Start GSM_in2016_v02 try again with following sea see if it stabkle!
IN2016_V02 2016-03-17 16:16 [view ] -46.8257 141.5530 Gravity Meter [view] Stop GSM_in2016_v02 end of shift shutdown
IN2016_V02 2016-03-18 01:53 [view ] -46.7494 141.8694 Gravity Meter [view] Start GSM_in2016_v02 back on shift
IN2016_V02 2016-03-18 03:14 [view ] -46.7664 141.8470 Gravity Meter [view] Stop GSM_in2016_v02 turned off as not stable Still getting gravity not settling to be around 9,000 to 10,000 mgal. It still keeps tilting to starboard. The replacement cross-track gyro seemed not to be the fix hoped for.
IN2016_V02 2016-03-23 22:44 [view ] -43.3295 147.3701 Gravity Meter [view] Other GSM_in2016_v02 Restart of gravity with a cal In adventure bay, calm waters so did a beam zero/gain test. Both looked OK and not changed. Gimbal stilled persisted in tilting to starboard. Restart logging and it took 30 minutes to stablise at beam zero. For 4 hours in calmwaters the machine behaved perfectly.
IN2016_V02 2016-03-24 11:09 [view ] -44.2744 147.3158 Gravity Meter [view] Stop GSM_in2016_v02 stop for the off-shift
IN2016_V02 2016-03-24 22:01 [view ] -45.0289 147.2468 Gravity Meter [view] Other GSM_in2016_v02 seas too rough - left off
IN2016_V02 2016-03-26 01:31 [view ] -44.9074 145.8694 Gravity Meter [view] Other GSM_in2016_v02 Tried gravity meter but too rough Sea sarte seems ok so turned on grav meter. But still getting violet starboard movements followed by one to bow. Does not like bouncing ship.
IN2016_V02 2016-03-28 23:30 [view ] -46.8512 144.2464 Gravity Meter [view] Start GSM_in2016_v02 seas calm so restart
IN2016_V02 2016-03-28 23:30 [view ] -46.8512 144.2464 Gravity Meter [view] Outage GSM_in2016_v02 turned off as still erratic. suspect cross-track gyro or related
IN2016_V03 2016-04-26 16:54 [view ] -43.7247 148.0767 Gravity Meter [view] Stop GSM_in2016_v03 Stop logging Unit clamped
IN2016_V03 2016-04-27 00:33 [view ] -45.0860 149.1200 Gravity Meter [view] Start GSM_in2016_v03 Gravity Meter Started
IN2016_V03 2016-04-27 15:21 [view ] -46.8855 150.5388 Gravity Meter [view] Stop GSM_in2016_v03 Gravity Meter Stopped End of shift
IN2016_V03 2016-04-29 02:14 [view ] -52.3662 155.1415 Gravity Meter [view] Start GSM_in2016_v03 Gravity Meter Started Weather has improved
IN2016_V03 2016-04-29 14:53 [view ] -54.3372 156.9338 Gravity Meter [view] Stop GSM_in2016_v03 Gravity Meter Stopped End of shift
IN2016_V03 2016-04-30 03:06 [view ] -56.1227 159.2718 Gravity Meter [view] Start GSM_in2016_v03 Gravity Meter Started
IN2016_V03 2016-04-30 04:26 [view ] -56.2805 159.5502 Gravity Meter [view] warning GSM_in2016_v03 Gravity Meter issue Bias in the beam volts due to deployment of argo float and sudden change of vessel direction. Beam clamped while unit settled and now running normally
IN2016_V03 2016-04-30 14:49 [view ] -57.6585 161.9947 Gravity Meter [view] Stop GSM_in2016_v03 Gravity Meter Stopped End of shift
IN2016_V03 2016-05-01 02:57 [view ] -59.4135 165.2362 Gravity Meter [view] Start GSM_in2016_v03 Gravity Meter Started
IN2016_V03 2016-05-01 15:06 [view ] -61.1482 168.4777 Gravity Meter [view] Stop GSM_in2016_v03 Gravity Meter Stopped End of shift
IN2016_V03 2016-05-02 03:25 [view ] -62.8365 172.1452 Gravity Meter [view] Start GSM_in2016_v03 Gravity Meter Started
IN2016_V03 2016-05-02 14:19 [view ] -63.5045 175.6342 Gravity Meter [view] Stop GSM_in2016_v03 Gravity Meter Stopped End of Shift
IN2016_V03 2016-05-03 02:58 [view ] -64.2025 -179.9475 Gravity Meter [view] Start GSM_in2016_v03 Gravity Meter Started
IN2016_V03 2016-05-03 14:25 [view ] -64.9713 -176.4133 Gravity Meter [view] Stop GSM_in2016_v03 Gravity Meter Stopped End of shift
IN2016_V03 2016-05-04 02:32 [view ] -65.8900 -171.9918 Gravity Meter [view] Start GSM_in2016_v03 Gravity Meter Started
IN2016_V03 2016-05-04 14:33 [view ] -66.5525 -170.0040 Gravity Meter [view] Stop GSM_in2016_v03 Gravity Meter Stopped
IN2016_V03 2016-05-06 02:30 [view ] -64.0033 -169.9917 Gravity Meter [view] Start GSM_in2016_v03 Gravity Meter Started
IN2016_V03 2016-05-06 14:06 [view ] -63.4805 -169.9855 Gravity Meter [view] Stop GSM_in2016_v03 Gravity Meter Stopped
IN2016_V03 2016-05-07 03:11 [view ] -62.9933 -170.0193 Gravity Meter [view] Start GSM_in2016_v03 Gravity Meter Started
IN2016_V03 2016-05-08 02:14 [view ] -63.0027 -170.0340 Gravity Meter [view] Start GSM_in2016_v03 Gravity Meter Started
IN2016_V03 2016-05-08 14:17 [view ] -62.0028 -170.0062 Gravity Meter [view] Stop GSM_in2016_v03 Gravity Meter Stopped
IN2016_V03 2016-05-09 02:43 [view ] -61.1580 170.0070 Gravity Meter [view] Start GSM_in2016_v03 Gravity Meter Started
IN2016_V03 2016-05-09 03:53 [view ] -62.9955 -170.0078 Gravity Meter [view] Stop GSM_in2016_v03 Gravity Meter Stopped Weather getting worse and noticed it had the graphs were looking problematic.
IN2016_V03 2016-05-10 03:14 [view ] -60.4413 -169.9930 Gravity Meter [view] Start GSM_in2016_v03 Gravity Meter Started Weather on the limit. monitoring
IN2016_V03 2016-05-10 05:07 [view ] -60.1310 170.0012 Gravity Meter [view] Stop GSM_in2016_v03 Gravity Meter Stopped Weather too rough
IN2016_V03 2016-05-11 03:19 [view ] -59.7160 170.6482 Gravity Meter [view] Outage GSM_in2016_v03 Gravity Meter Stopped Attempted to start gravity meter. The way it was behaving think the weather is still not calm enough
IN2016_V03 2016-05-11 08:26 [view ] -59.9955 -170.0157 Gravity Meter [view] Start GSM_in2016_v03 Gravity Meter Started
IN2016_V03 2016-05-11 14:45 [view ] -60.0005 -170.0170 Gravity Meter [view] Stop GSM_in2016_v03 Gravity Meter Stopped
IN2016_V03 2016-05-13 03:43 [view ] -58.5913 -170.0147 Gravity Meter [view] Start GSM_in2016_v03 Gravity Meter Started
IN2016_V03 2016-05-13 04:04 [view ] -58.5307 -170.0095 Gravity Meter [view] Stop GSM_in2016_v03 Gravity Meter Stopped Too rough for gravity meter, unit clamped
IN2016_V03 2016-05-14 05:31 [view ] -57.0110 170.0020 Gravity Meter [view] Start GSM_in2016_v03 Gravity Meter Started
IN2016_V03 2016-05-14 14:07 [view ] -56.4555 170.0087 Gravity Meter [view] Stop GSM_in2016_v03 Stop logging Meter clamped end of shift
IN2016_V03 2016-05-15 05:25 [view ] -55.5100 -170.0045 Gravity Meter [view] Start GSM_in2016_v03 Gravity Meter Started
IN2016_V03 2016-05-16 02:32 [view ] -54.0225 -169.9892 Gravity Meter [view] Start GSM_in2016_v03 Gravity Meter Started
IN2016_V03 2016-05-16 14:00 [view ] -53.4827 -169.9898 Gravity Meter [view] Stop GSM_in2016_v03 Gravity Meter Stopped
IN2016_V03 2016-05-17 02:39 [view ] -52.5030 -169.9898 Gravity Meter [view] Start GSM_in2016_v03 Gravity Meter Started
IN2016_V03 2016-05-17 14:05 [view ] -51.5713 -170.0253 Gravity Meter [view] Stop GSM_in2016_v03 Gravity Meter Stopped
IN2016_V03 2016-05-18 02:39 [view ] -50.8353 -170.0115 Gravity Meter [view] Start GSM_in2016_v03 Gravity Meter Started
IN2016_V03 2016-05-18 14:13 [view ] -50.0068 -169.9923 Gravity Meter [view] Stop GSM_in2016_v03 Gravity Meter Stopped
IN2016_V03 2016-05-19 02:35 [view ] -58.9955 -170.0037 Gravity Meter [view] Start GSM_in2016_v03 Gravity Meter Started
IN2016_V03 2016-05-19 14:04 [view ] -48.3582 -169.9992 Gravity Meter [view] Stop GSM_in2016_v03 Gravity Meter Stopped
IN2016_V03 2016-05-20 02:47 [view ] -47.4932 169.9863 Gravity Meter [view] Start GSM_in2016_v03 Gravity Meter Started
IN2016_V03 2016-05-20 14:04 [view ] -46.7187 -170.9115 Gravity Meter [view] Stop GSM_in2016_v03 Gravity Meter Stopped
IN2016_V03 2016-05-21 02:26 [view ] -46.3275 171.3758 Gravity Meter [view] Start GSM_in2016_v03 Gravity Meter Started
IN2016_V03 2016-05-21 08:10 [view ] -45.9813 -171.7855 Gravity Meter [view] Stop GSM_in2016_v03 Gravity Meter Stopped Weather picking up
IN2016_V03 2016-05-22 04:00 [view ] -45.1773 -172.7350 Gravity Meter [view] warning GSM_in2016_v03 Gravity Meter Started Attempted to start gravity meter but gimbal shifted to its extremes. Left off for the moment
IN2016_V03 2016-05-23 04:35 [view ] -44.1558 173.9377 Gravity Meter [view] Start GSM_in2016_v03 Gravity Meter Started Re run the P-1 control cable so that it is no longer running over the top of the gimbal. This appeared to be resisting the Gimbals movement and the unit appears to be running smothly
IN2016_V03 2016-05-23 09:21 [view ] -43.9917 -174.0517 Gravity Meter [view] Stop GSM_in2016_v03 Gravity Meter Stopped Gravity meter stopped taking some big rolls on a transit. It has been working well since changing the cable run
IN2016_V03 2016-05-24 04:46 [view ] -42.5167 -176.8442 Gravity Meter [view] Start GSM_in2016_v03 Start Logging
IN2016_V03 2016-05-24 13:53 [view ] -42.2918 -178.9450 Gravity Meter [view] Stop GSM_in2016_v03 Gravity Meter Stopped Clamped
IN2016_V03 2016-05-25 18:05 [view ] -41.5930 175.0938 Gravity Meter [view] Start GSM_in2016_v03 Gravity Meter Started
IN2016_V03 2016-05-26 02:45 [view ] -41.2677 174.7868 Gravity Meter [view] Other GSM_in2016_v03 Gravity tie conducted Gravity tie on Aetoa Quay berthj 5 was done on the tie point that was next to the vessel so 3 readings were conducted on 1 spot
IN2016_V03 2016-05-26 22:26 [view ] -41.2677 174.7867 Gravity Meter [view] Start GSM_in2016_v03 restarted gravity meter - no tracking yet
IN2016_V03 2016-05-26 22:34 [view ] Gravity Meter [view] Other GSM_in2016_v03 st tracking on
IN2016_V03 2016-05-27 13:47 [view ] -41.8872 178.2612 Gravity Meter [view] Stop GSM_in2016_v03 gravity meter off -
IN2016_V03 2016-05-28 02:40 [view ] -42.1417 -178.1050 Gravity Meter [view] Start GSM_in2016_v03 starting up
IN2016_V03 2016-05-28 02:49 [view ] -42.1450 178.0617 Gravity Meter [view] Start GSM_in2016_v03
IN2016_V03 2016-05-28 13:40 [view ] -42.3540 -175.0897 Gravity Meter [view] Stop GSM_in2016_v03 gravity meter turned off - as i'm going off watch
IN2016_V03 2016-05-29 04:01 [view ] -41.7183 -173.9480 Gravity Meter [view] Start GSM_in2016_v03 warming up
IN2016_V03 2016-05-29 12:12 [view ] -41.2730 -173.6518 Gravity Meter [view] Stop GSM_in2016_v03
IN2016_V03 2016-05-30 04:33 [view ] -39.9677 -172.7125 Gravity Meter [view] Observation GSM_in2016_v03 moving onto CTD 57
IN2016_V03 2016-05-30 13:50 [view ] -39.5138 -172.4145 Gravity Meter [view] Stop GSM_in2016_v03
IN2016_V03 2016-05-31 13:27 [view ] -38.1907 -171.5002 Gravity Meter [view] Stop GSM_in2016_v03
IN2016_V03 2016-06-01 02:09 [view ] -37.3067 -170.8932 Gravity Meter [view] GSM_in2016_v03 pressure check right side both 25
IN2016_V03 2016-06-01 02:31 [view ] -37.3075 -170.8927 Gravity Meter [view] Start GSM_in2016_v03 st tracking on - on station 63
IN2016_V03 2016-06-02 02:31 [view ] -35.9635 -170.0002 Gravity Meter [view] Start GSM_in2016_v03 restart logging -
IN2016_V03 2016-06-02 13:43 [view ] -35.3338 -170.0020 Gravity Meter [view] Stop GSM_in2016_v03
IN2016_V03 2016-06-03 02:25 [view ] -34.6698 -170.0048 Gravity Meter [view] Start GSM_in2016_v03 unclamping meter only partially unclamped initially - had to restart software - temperature was also displaying 46 (57 when restarted)
IN2016_V03 2016-06-03 13:54 [view ] -33.5222 -170.0008 Gravity Meter [view] Stop GSM_in2016_v03
IN2016_V03 2016-06-04 02:34 [view ] -32.8205 -170.0022 Gravity Meter [view] Start GSM_in2016_v03 low values - QC GRAV 9649 water depth 5586
IN2016_V03 2016-06-04 13:31 [view ] -32.0017 -169.9943 Gravity Meter [view] Stop GSM_in2016_v03
IN2016_V03 2016-06-05 02:20 [view ] -31.0293 -169.9972 Gravity Meter [view] Start GSM_in2016_v03
IN2016_V03 2016-06-06 03:16 [view ] -29.4998 -169.9973 Gravity Meter [view] Start GSM_in2016_v03 software warning when restarting software unclamped - watched it unclamped and then software clamped meter - exited program and restarted - when restarted software beam was unclamped
IN2016_V03 2016-06-06 13:40 [view ] -28.5913 -169.9978 Gravity Meter [view] Stop GSM_in2016_v03
IN2016_V03 2016-06-09 02:47 [view ] -26.0030 Gravity Meter [view] Start GSM_in2016_v03 start gravity meter
IN2016_V03 2016-06-09 13:05 [view ] -25.4950 -170.0010 Gravity Meter [view] Stop GSM_in2016_v03
IN2016_V03 2016-06-10 06:12 [view ] -24.4995 -170.0020 Gravity Meter [view] Other GSM_in2016_v03 leaving ctd station - won't start gravity meter today as rough weather fore cast
IN2016_V03 2016-06-13 03:05 [view ] -19.4977 -170.0022 Gravity Meter [view] Start GSM_in2016_v03 weather calmer gravity meter back on - on station 99
IN2016_V03 2016-06-13 13:25 [view ] -18.7962 -170.0345 Gravity Meter [view] Stop GSM_in2016_v03
IN2016_V03 2016-06-14 02:21 [view ] -17.7913 -170.0003 Gravity Meter [view] Start GSM_in2016_v03 starting up gravity meter
IN2016_V03 2016-06-14 03:21 [view ] -17.6029 -170.0005 Gravity Meter [view] Other GSM_in2016_v03 checked bungy lengths and shock absorbers
IN2016_V03 2016-06-14 13:36 [view ] -17.0022 -170.0013 Gravity Meter [view] Stop GSM_in2016_v03
IN2016_V03 2016-06-15 02:08 [view ] -16.0025 -170.0010 Gravity Meter [view] Start GSM_in2016_v03 warming up
IN2016_V03 2016-06-15 13:36 [view ] -15.3707 -170.0008 Gravity Meter [view] Stop GSM_in2016_v03
IN2016_V03 2016-06-16 02:15 [view ] -14.2802 -169.9965 Gravity Meter [view] Start GSM_in2016_v03 stn 110 middle of american samoa islands
IN2016_V03 2016-06-16 12:51 [view ] -13.8182 -169.9990 Gravity Meter [view] Stop GSM_in2016_v03 stopping gravity meter - st tracking off - clamp beam through software - beam voltage .011 .012 -
IN2016_V03 2016-06-17 02:20 [view ] -12.9975 -169.9982 Gravity Meter [view] Start GSM_in2016_v03
IN2016_V03 2016-06-17 12:52 [view ] -11.9973 -170.0027 Gravity Meter [view] Stop GSM_in2016_v03
IN2016_V03 2016-06-18 02:13 [view ] -10.9985 -169.9995 Gravity Meter [view] Start GSM_in2016_v03
IN2016_V03 2016-06-18 13:44 [view ] -10.0443 -169.7060 Gravity Meter [view] Stop GSM_in2016_v03
IN2016_V03 2016-06-19 01:58 [view ] -9.4990 -168.9990 Gravity Meter [view] Start GSM_in2016_v03
IN2016_V03 2016-06-19 13:34 [view ] -8.4942 -168.7508 Gravity Meter [view] Stop GSM_in2016_v03
IN2016_V03 2016-06-20 04:42 [view ] -7.4978 -168.7497 Gravity Meter [view] Start GSM_in2016_v03 about to finish ctd 126
IN2016_V03 2016-06-21 02:33 [view ] -5.8735 -168.7505 Gravity Meter [view] Start GSM_in2016_v03
IN2016_V03 2016-06-21 11:42 [view ] -4.9992 -168.7487 Gravity Meter [view] Stop GSM_in2016_v03 on ctd station 130 - will be stationary here until after my watch
IN2016_V03 2016-06-22 13:46 [view ] -2.9993 -168.7512 Gravity Meter [view] Stop GSM_in2016_v03
IN2016_V03 2016-06-23 02:04 [view ] -2.0827 -168.7498 Gravity Meter [view] Start GSM_in2016_v03 turning on
IN2016_V03 2016-06-23 13:53 [view ] -1.2470 -168.7498 Gravity Meter [view] Stop GSM_in2016_v03
IN2016_V03 2016-06-24 02:41 [view ] -0.4023 -168.7493 Gravity Meter [view] Start GSM_in2016_v03
IN2016_V03 2016-06-24 13:34 [view ] -0.5920 -169.2373 Gravity Meter [view] Stop GSM_in2016_v03
IN2016_V03 2016-06-25 01:56 [view ] -2.4958 -170.8037 Gravity Meter [view] Start GSM_in2016_v03
IN2016_V03 2016-06-25 13:41 [view ] -4.2145 -172.2195 Gravity Meter [view] Stop GSM_in2016_v03
IN2016_V03 2016-06-26 13:25 [view ] -7.6622 -175.0710 Gravity Meter [view] Stop GSM_in2016_v03
IN2016_V03 2016-06-27 02:12 [view ] -9.4612 -176.5675 Gravity Meter [view] Start GSM_in2016_v03
IN2016_V03 2016-06-27 02:16 [view ] -9.4703 -176.5750 Gravity Meter [view] Other GSM_in2016_v03 pressure checked, bungy length checked
IN2016_V03 2016-06-27 19:57 [view ] -11.8128 -178.5052 Gravity Meter [view] Start GSM_in2016_v03
IN2016_V03 2016-06-28 10:44 [view ] -13.8798 179.6387 Gravity Meter [view] Stop GSM_in2016_v03
IN2016_V03 2016-06-28 22:47 [view ] -15.6662 178.0540 Gravity Meter [view] Start GSM_in2016_v03 on starting up after unclamping the meter - the meter clamped itself again - shutdown and restarted - on starting up program again the meter unclamped - so clamped and unclamped
IN2016_V03 2016-06-29 08:24 [view ] -16.9610 176.8967 Gravity Meter [view] Stop GSM_in2016_v03
IN2016_V03 2016-06-29 18:01 [view ] -17.7845 177.3010 Gravity Meter [view] Start GSM_in2016_v03
IN2016_V04 2016-08-31 04:01 [view ] -33.8682 151.2220 Gravity Meter [view] Start GSM_in2016_v04
IN2016_V04 2016-09-06 23:23 [view ] -36.2507 153.7492 Gravity Meter [view] Other GSM_in2016_v04 Large spike in gravity data
IN2016_V05 2016-09-27 21:02 [view ] -27.3898 153.1582 Gravity Meter [view] Start GSM_in2016_v05 Gravity Meter started
IN2016_V05 2016-10-16 09:51 [view ] -19.4975 147.8692 Gravity Meter [view] Other GSM_in2016_v05 labview error seasys II display was frozen- clicked on screen - labview error and then self re-started
IN2016_V06 2016-10-28 21:00 [view ] Gravity Meter [view] Start GSM_in2016_v06 Gravity Meter started
IN2017_C01 2017-04-11 07:36 [view ] -42.9317 147.3818 Gravity Meter [view] Start GSM_in2017_c01 gravity logging on departure
IN2017_C01 2017-04-11 12:02 [view ] -43.2663 145.1715 Gravity Meter [view] warning GSM_in2017_c01 had frozen with 'labview file opening permission error'
IN2017_C01 2017-04-11 14:39 [view ] -42.9542 144.5647 Gravity Meter [view] warning GSM_in2017_c01 labview warning again
IN2017_C01 2017-04-11 20:19 [view ] -43.6928 146.0053 Gravity Meter [view] Other GSM_in2017_c01 locked file warning -
IN2017_C01 2017-04-12 08:31 [view ] -40.8802 140.6105 Gravity Meter [view] Other GSM_in2017_c01 froze with labview error Karl will diable delta
IN2017_C01 2017-04-25 02:41 [view ] -36.6910 136.7958 Gravity Meter [view] Stop GSM_in2017_c01 Gravity meter clamped and shut down for weather
IN2017_C02 2017-05-03 22:29 [view ] -42.9050 147.3757 Gravity Meter [view] Start GSM_in2017_c02 Gravity meter turned on
IN2017_C02 2017-05-04 02:38 [view ] -43.2670 147.9337 Gravity Meter [view] GSM_in2017_c02 GPS cable plugged in
IN2017_C02 2017-05-06 21:42 [view ] -39.0927 146.7478 Gravity Meter [view] Stop GSM_in2017_c02 Gravity meter shut down and clamped due to weather
IN2017_C02 2017-05-08 04:43 [view ] -39.0526 146.9643 Gravity Meter [view] GSM_in2017_c02 Gravity meter turned back on- calmer weather
IN2017_E02 2017-03-31 03:05 [view ] -42.8864 147.3388 Gravity Meter [view] Start GSM_in2017_e02
IN2017_E02 2017-03-31 10:35 [view ] -43.3213 147.5510 Gravity Meter [view] Stop GSM_in2017_e02 shut for night
IN2017_E02 2017-04-02 07:27 [view ] -42.9358 147.3785 Gravity Meter [view] Stop GSM_in2017_e02 end of voyage
IN2017_E04 2017-12-07 22:52 [view ] -42.7623 149.6050 Gravity Meter [view] Start GSM_in2017_e04 Start logging
IN2017_V01 2017-01-19 05:03 [view ] -60.1055 129.2615 Gravity Meter [view] Outage GSM_in2017_v01 Software error resulting in spike A previous error occurred approx 15 mins previously.
IN2017_V01 2017-01-19 05:46 [view ] -60.2192 129.0667 Gravity Meter [view] Outage GSM_in2017_v01 Gravity meter software error resulting in spike
IN2017_V01 2017-01-19 07:59 [view ] -60.5550 128.4797 Gravity Meter [view] Outage GSM_in2017_v01 Gravity meter software error resulting in spike
IN2017_V01 2017-01-19 08:09 [view ] -60.5797 128.4360 Gravity Meter [view] Outage GSM_in2017_v01 Gravity meter software error resulting in spike
IN2017_V01 2017-01-19 11:09 [view ] -60.9763 127.5595 Gravity Meter [view] Outage GSM_in2017_v01 Gravity meter software error resulting in spike
IN2017_V01 2017-01-19 14:06 [view ] -61.4120 126.8120 Gravity Meter [view] Outage GSM_in2017_v01 Gravity meter software error resulting in spike
IN2017_V01 2017-01-19 14:23 [view ] -61.4543 126.7428 Gravity Meter [view] Outage GSM_in2017_v01 Gravity meter software error resulting in spike
IN2017_V01 2017-01-19 21:21 [view ] -63.4183 122.7222 Gravity Meter [view] Outage GSM_in2017_v01 Outage and spring tension mismatch Gravity meter beam voltage rose to 5 and gravity spiked. Spring tension was mismatched with software ST count, causing unbalance. Outage was from 2100 - 0200 while system was rebalanced and reset.
IN2017_V01 2017-01-20 02:00 [view ] -63.4238 122.7132 Gravity Meter [view] Start GSM_in2017_v01 Recommence gravity logging
IN2017_V01 2017-01-20 02:56 [view ] -63.2107 123.1518 Gravity Meter [view] Outage GSM_in2017_v01 Gravity software error causing data outage and spike
IN2017_V01 2017-01-20 05:50 [view ] -63.6332 122.2707 Gravity Meter [view] Outage GSM_in2017_v01 Gravity meter software error resulting in spike
IN2017_V01 2017-01-20 06:01 [view ] -63.6582 122.2037 Gravity Meter [view] Outage GSM_in2017_v01 Gravity meter software error resulting in spike
IN2017_V01 2017-01-20 08:56 [view ] -64.0333 121.1903 Gravity Meter [view] Outage GSM_in2017_v01 Gravity meter software error resulting in spike
IN2017_V01 2017-01-20 09:11 [view ] -64.0688 121.1018 Gravity Meter [view] Outage GSM_in2017_v01 Gravity meter software error resulting in spike
IN2017_V01 2017-01-20 12:05 [view ] -64.1003 120.2275 Gravity Meter [view] Outage GSM_in2017_v01 Gravity meter software error resulting in spike
IN2017_V01 2017-01-20 12:14 [view ] -64.0998 120.1805 Gravity Meter [view] Outage GSM_in2017_v01 Gravity meter software error resulting in spike
IN2017_V01 2017-01-20 15:22 [view ] -64.0897 119.2677 Gravity Meter [view] Outage GSM_in2017_v01 Gravity meter software error resulting in spike
IN2017_V01 2017-01-21 03:46 [view ] -64.0395 115.9155 Gravity Meter [view] Outage GSM_in2017_v01 Gravity meter software error resulting in spike
IN2017_V01 2017-01-21 06:55 [view ] -64.0297 114.9742 Gravity Meter [view] Outage GSM_in2017_v01 Gravity meter software error resulting in spike
IN2017_V01 2017-01-21 08:53 [view ] -64.0398 114.3957 Gravity Meter [view] Line GSM_in2017_v01 EOL2
IN2017_V01 2017-01-21 10:00 [view ] -64.1875 114.3797 Gravity Meter [view] Outage GSM_in2017_v01 Gravity meter software error resulting in spike
IN2017_V01 2017-01-21 12:33 [view ] -64.5233 114.3527 Gravity Meter [view] Other GSM_in2017_v01 Turn to east
IN2017_V01 2017-01-21 13:02 [view ] -64.5275 114.4653 Gravity Meter [view] Outage GSM_in2017_v01 Gravity meter software error resulting in spike
IN2017_V01 2017-01-21 13:16 [view ] -64.5280 114.5233 Gravity Meter [view] Outage GSM_in2017_v01 Gravity meter software error resulting in spike
IN2017_V01 2017-01-21 13:43 [view ] -64.5195 114.6305 Gravity Meter [view] Line GSM_in2017_v01 Turn to north
IN2017_V01 2017-01-22 02:25 [view ] -64.2550 115.9238 Gravity Meter [view] Outage GSM_in2017_v01 Gravity meter software error resulting in spike
IN2017_V01 2017-01-22 10:38 [view ] -64.2747 117.9095 Gravity Meter [view] Line GSM_in2017_v01 EOL - turning north
IN2017_V01 2017-01-22 11:23 [view ] -64.1743 117.9425 Gravity Meter [view] Line GSM_in2017_v01 EOT, SOL E - W
IN2017_V01 2017-01-23 07:19 [view ] -64.3367 116.7702 Gravity Meter [view] Line GSM_in2017_v01 Turn to south
IN2017_V01 2017-01-23 07:54 [view ] -64.4082 116.7585 Gravity Meter [view] Line GSM_in2017_v01 New line: travelling to west
IN2017_V01 2017-01-23 14:23 [view ] -64.3885 114.8167 Gravity Meter [view] Line GSM_in2017_v01 EOL - turning south
IN2017_V01 2017-01-24 03:07 [view ] -64.5535 116.6033 Gravity Meter [view] Line GSM_in2017_v01 W-E line: rejoining seismic line
IN2017_V01 2017-01-24 08:57 [view ] -64.5623 117.7313 Gravity Meter [view] Line GSM_in2017_v01 EOL: turn to north
IN2017_V01 2017-01-24 09:35 [view ] -64.4898 117.7327 Gravity Meter [view] Line GSM_in2017_v01 EOT, SOL E - W
IN2017_V01 2017-01-26 03:22 [view ] -64.7410 114.3072 Gravity Meter [view] Line GSM_in2017_v01 SOL - travelling W - E
IN2017_V01 2017-01-26 11:39 [view ] -64.8135 114.3077 Gravity Meter [view] Line GSM_in2017_v01 EOL - turn to south
IN2017_V01 2017-01-26 12:11 [view ] -64.8850 114.3045 Gravity Meter [view] Line GSM_in2017_v01 EOT, SOL W - E
IN2017_V01 2017-01-26 13:43 [view ] -64.8923 114.7432 Gravity Meter [view] Line GSM_in2017_v01 EOL: turn to south
IN2017_V01 2017-01-27 05:17 [view ] -64.6657 114.7343 Gravity Meter [view] Outage GSM_in2017_v01 software error resulting in gravity outage
IN2017_V02 2017-03-16 21:00 [view ] Gravity Meter [view] Other GSM_in2017_v02 Gravity meter logging on departure
IN2017_V02 2017-03-17 07:01 [view ] -43.6350 147.4575 Gravity Meter [view] Stop GSM_in2017_v02 Gravity meter clamped and stopped logging for marine reserve
IN2017_V02 2017-03-17 08:07 [view ] -43.6983 147.3578 Gravity Meter [view] Stop GSM_in2017_v02 Gravity meter PC turned off and gimbal locks engaged
IN2017_V02 2017-03-18 02:38 [view ] -45.5968 143.8098 Gravity Meter [view] Start GSM_in2017_v02 Start gravity meter
IN2017_V02 2017-03-27 05:25 [view ] -44.6600 147.0220 Gravity Meter [view] Stop GSM_in2017_v02 Gravity meter clamped and shut down for weather
IN2017_V03 2017-05-18 16:49 [view ] -41.6472 149.5693 Gravity Meter [view] Crash GSM_in2017_v03 Gravity meter crashed- Labview error Gravity meter software shut down and restarted after labview error. On start up, it jolted and hit the gimbal limit, so the torque motor fuse was pulled and the meter was shut down. The spring tension counted had set down to 0024. On rebooting, the gravity is now leveling around 20 instead of normal values. Meter is turned off for now until this issue can be resolved
IN2017_V03 2017-05-19 16:57 [view ] -41.4317 149.0695 Gravity Meter [view] Start GSM_in2017_v03 Gravity meter running Instructions for resetting ST coutner followed from Colt. Gravity meter functioning normally.
IN2017_V03 2017-05-24 18:26 [view ] -38.0057 150.5315 Gravity Meter [view] Stop GSM_in2017_v03 Gravity meter clamped and shut down due to weather
IN2017_V03 2017-05-25 16:22 [view ] -37.1437 150.5207 Gravity Meter [view] Start GSM_in2017_v03 Turned back on after weather abated
IN2017_V03 2017-05-31 16:18 [view ] -32.1573 153.4018 Gravity Meter [view] Stop GSM_in2017_v03 Shut down due to rough weather
IN2017_V03 2017-06-03 14:43 [view ] -32.5342 153.1628 Gravity Meter [view] Start GSM_in2017_v03
IN2017_V05 2017-10-24 06:07 [view ] -19.9855 116.6190 Gravity Meter [view] Other GSM_in2017_v05 Gravity meter restarted Gravity meter crashed while transferring files
IN2018_V02 2018-03-03 13:03 [view ] -44.5627 146.3417 Gravity Meter [view] Stop GSM_in2018_v02 clamped and stopped - rough weather
IN2018_V02 2018-03-04 00:39 [view ] -46.2288 145.4912 Gravity Meter [view] Start GSM_in2018_v02
IN2018_V02 2018-03-04 14:46 [view ] -46.7953 142.6397 Gravity Meter [view] Stop GSM_in2018_v02 off as i'm going off shift
IN2018_V02 2018-03-05 05:57 [view ] -46.9740 141.9620 Gravity Meter [view] Start GSM_in2018_v02 and copied files before re-starting
IN2018_V02 2018-03-05 14:41 [view ] -47.0037 142.2373 Gravity Meter [view] Stop GSM_in2018_v02 end of shift
IN2018_V02 2018-03-06 05:53 [view ] -47.0173 142.3155 Gravity Meter [view] Start GSM_in2018_v02
IN2018_V02 2018-03-06 14:28 [view ] -46.9968 142.0028 Gravity Meter [view] Stop GSM_in2018_v02
IN2018_V02 2018-03-07 04:03 [view ] -46.9960 141.9968 Gravity Meter [view] Start GSM_in2018_v02
IN2018_V02 2018-03-07 14:35 [view ] -46.9718 141.9332 Gravity Meter [view] Stop GSM_in2018_v02 off as i'm going off shift
IN2018_V02 2018-03-08 03:00 [view ] -46.7947 141.8103 Gravity Meter [view] Start GSM_in2018_v02 back on shift
IN2018_V02 2018-03-08 16:30 [view ] -47.0047 142.0028 Gravity Meter [view] Stop GSM_in2018_v02
IN2018_V02 2018-03-09 05:26 [view ] -47.0015 141.9943 Gravity Meter [view] Start GSM_in2018_v02
IN2018_V02 2018-03-09 14:47 [view ] -46.6353 141.9908 Gravity Meter [view] Stop GSM_in2018_v02
IN2018_V02 2018-03-11 06:29 [view ] -44.2278 146.4628 Gravity Meter [view] Start GSM_in2018_v02
IN2018_V02 2018-03-11 14:03 [view ] -43.1248 147.5453 Gravity Meter [view] Stop GSM_in2018_v02 near hobart
IN2018_V02 2018-03-12 03:09 [view ] -42.8863 147.3388 Gravity Meter [view] Start GSM_in2018_v02 leaving hobart
IN2018_V02 2018-03-12 07:47 [view ] -43.5627 147.4107 Gravity Meter [view] Stop GSM_in2018_v02 rough and getting rougher!
IN2018_V02 2018-03-17 05:08 [view ] -45.7875 141.9215 Gravity Meter [view] Start GSM_in2018_v02
IN2018_V02 2018-03-17 15:44 [view ] -46.4763 141.7768 Gravity Meter [view] Stop GSM_in2018_v02
IN2018_V02 2018-03-20 04:59 [view ] -44.4627 144.1217 Gravity Meter [view] Start GSM_in2018_v02
IN2018_V03 2018-04-19 15:02 [view ] -27.1017 155.2902 Gravity Meter [view] Start GSM_in2018_v03 replaced pc screen Screen finally died, replaced with new slightly larger VGA
IN2018_V03 2018-04-26 20:57 [view ] -27.2967 154.1583 Gravity Meter [view] Stop GSM_in2018_v03 potential rough weather
IN2018_V03 2018-04-28 08:45 [view ] -26.8230 153.4117 Gravity Meter [view] Start GSM_in2018_v03
IN2018_V03 2018-04-28 18:39 [view ] -27.2433 154.2617 Gravity Meter [view] Stop GSM_in2018_v03
IN2018_V03 2018-05-02 10:36 [view ] -27.1442 154.0395 Gravity Meter [view] Start GSM_in2018_v03
IN2018_V03 2018-05-06 18:45 [view ] -27.9287 154.8557 Gravity Meter [view] Stop GSM_in2018_v03 seas getting rough
IN2018_V03 2018-05-06 22:45 [view ] -27.8983 155.3203 Gravity Meter [view] Start GSM_in2018_v03
IN2018_V03 2018-05-09 11:46 [view ] -26.9832 154.4470 Gravity Meter [view] Stop GSM_in2018_v03 end of voyage
IN2018_V04 2018-09-11 02:26 [view ] -42.8863 147.3388 Gravity Meter [view] Start GSM_in2018_v04 gravity meter logging at wharf
IN2018_V04 2018-09-15 00:01 [view ] -35.8045 153.0738 Gravity Meter [view] Stop GSM_in2018_v04 Shut down and clamped due to rough weather
IN2018_V04 2018-09-15 18:55 [view ] -34.6462 154.5665 Gravity Meter [view] Start GSM_in2018_v04 Turned back on- weather calmer
IN2018_V04 2018-09-29 12:13 [view ] -46.7337 146.7707 Gravity Meter [view] Stop GSM_in2018_v04 very rough -
IN2018_V04 2018-10-01 02:15 [view ] -47.0403 141.8588 Gravity Meter [view] Start GSM_in2018_v04 Turned back on- weather calmer
IN2018_V04 2018-10-02 23:51 [view ] -46.9012 142.3310 Gravity Meter [view] Stop GSM_in2018_v04 Shut down and clamped due to rough weather Air dampers reaching full extents
IN2018_V04 2018-10-04 20:48 [view ] -46.8885 141.2012 Gravity Meter [view] Start GSM_in2018_v04 Turned back on- weather calmer
IN2018_V06 2018-11-22 21:30 [view ] -42.9055 147.3725 Gravity Meter [view] Start GSM_in2018_v06
IN2019_E01 2019-07-27 14:00 [view ] -9.3913 133.6527 Gravity Meter [view] Start GSM_in2019_e01 Gravity meter started Air shocks all filled to 30 psi
IN2019_E01 2019-07-27 14:47 [view ] -9.4390 133.8038 Gravity Meter [view] Stop GSM_in2019_e01 Gravity meter shut back down- drifting after unclamping and ST tracking on
IN2019_E01 2019-07-27 15:28 [view ] -9.4810 133.9365 Gravity Meter [view] Start GSM_in2019_e01 Trying to start gravity meter again
IN2019_T01 2019-04-28 21:20 [view ] -42.8863 147.3388 Gravity Meter [view] Start GSM_in2019_t01
IN2019_T01 2019-05-08 23:03 [view ] -32.0323 115.6878 Gravity Meter [view] Stop GSM_in2019_t01
IN2019_T03 2019-12-22 20:16 [view ] -12.4718 130.8468 Gravity Meter [view] Other GSM_in2019_t03 Gravity still reading at Darwin prior to departure Gravity meter was turned on and allowed to settle out on the 22-12-2019 On 23-12-2019 readings as follows: ST = 8265.2, Grav = 8265.3 taken at 0545 (local).
IN2019_V01 2019-01-17 20:51 [view ] -42.8863 147.3388 Gravity Meter [view] Other GSM_in2019_v01 Beam zero/beam gain corrections Beam zero/Beam gain calibrations performed. Beam zero changed to 1.98, Beam gain changed to 1.01
IN2019_V01 2019-01-18 20:47 [view ] -42.8863 147.3388 Gravity Meter [view] Start GSM_in2019_v01 Gravity Meter started for in2019_v01
IN2019_V01 2019-01-28 07:31 [view ] -65.0122 138.4000 Gravity Meter [view] Stop GSM_in2019_v01 Gravity meter clamped and shut down due to rough weather
IN2019_V01 2019-01-29 12:46 [view ] -64.7202 139.3497 Gravity Meter [view] Start GSM_in2019_v01 Gravity meter started back up- calmer weather First attempt to start failed- temperature of meter and ambient temperature were at 0. Meter would not unclamp. Software restarted, and seemed to boot up as normal.
IN2019_V02 2019-03-25 00:00 [view ] -49.5043 139.9700 Gravity Meter [view] Stop GSM_in2019_v02 Turn off due to rough weather
IN2019_V02 2019-03-26 15:19 [view ] -47.6180 141.7548 Gravity Meter [view] Start GSM_in2019_v02 Turn gravity on
IN2019_V02 2019-04-02 12:46 [view ] -45.7580 143.9212 Gravity Meter [view] Stop GSM_in2019_v02 Turned off and clamped
IN2019_V03 2019-06-09 16:33 [view ] -20.6492 111.5255 Gravity Meter [view] Stop GSM_in2019_v03 Gravity meter clamped and shut down due to rough weather
IN2019_V03 2019-06-10 02:05 [view ] -21.7720 111.9173 Gravity Meter [view] Start GSM_in2019_v03 Restart wind at 6 knots still a large swell
IN2019_V05 2019-09-10 05:19 [view ] -27.2092 154.7278 Gravity Meter [view] Stop GSM_in2019_v05 Gravity meter clamped and shut down due to rough weather
IN2019_V05 2019-09-10 20:14 [view ] -27.0688 155.2952 Gravity Meter [view] Start GSM_in2019_v05 Restart Gravity Meter with improving seastate
IN2019_V05 2019-09-29 03:54 [view ] -27.4160 153.1418 Gravity Meter [view] Stop GSM_in2019_v05 Shut down Gravity Meter
IN2019_V06 2019-10-20 13:32 [view ] -12.8838 126.8947 Gravity Meter [view] Other GSM_in2019_v06 ambient temperature 30.8 techsas alarm
IN2019_V06 2019-10-20 13:39 [view ] -12.8877 126.8713 Gravity Meter [view] note GSM_in2019_v06 operating temperature range is 5 to 40
IN2019_V06 2019-12-16 22:46 [view ] -12.4718 130.8468 Gravity Meter [view] Stop GSM_in2019_v06 At Darwin Port
IN2020_E01 2020-08-01 02:25 [view ] -43.1222 147.5687 Gravity Meter [view] Start GSM_in2020_e01 Gravity meter restarted and tracking engaged ST = 10432.4, Gravity = 10429.3 and QC Grav = 10295.7
IN2020_T01 2020-03-13 06:07 [view ] -32.0497 115.7450 Gravity Meter [view] Stop GSM_in2020_t01 Shutdown ST value 9376.1 Gravity Value 9376.0 QC Grav 9256.1
IN2020_V01 2020-01-10 04:52 [view ] -32.1320 115.2087 Gravity Meter [view] Start GSM_in2020_v01 Start logging gravity data
IN2020_V01 2020-01-22 19:33 [view ] -53.1612 81.7557 Gravity Meter [view] Observation GSM_in2020_v01 Minor Dips in Eotvos Heading 120deg (~ESE)
IN2020_V09 2020-08-26 00:15 [view ] -42.8863 147.3388 Gravity Meter [view] GSM_in2020_v09 Gravity meter turned on - settling
IN2020_V09 2020-08-27 11:30 [view ] -44.1715 146.7453 Gravity Meter [view] Stop GSM_in2020_v09 Gravity meter turned OFF - sea state deteriorating Current sea state is an 8 and expected to worsen.
IN2020_V09 2020-08-31 00:03 [view ] -46.9342 142.0728 Gravity Meter [view] Start GSM_in2020_v09 Restarted Gravity Meter (improved sea conditions) System still settling: ST=10893.4, Grav=10811.2, QC=10670.1, Beam Volts=-0.468, Meter Temp=56.5
IN2020_V09 2020-08-31 02:49 [view ] -46.9472 142.0312 Gravity Meter [view] Observation GSM_in2020_v09 Gravity reading (after settling time) ST=10817.0, Grav=10805.3, QC Grav=10667.1 Meter Temp=56.4°
IN2021_E01 2021-11-09 03:33 [view ] Gravity Meter [view] GSM Micro-g LaCoste AS-2 gravity meter event Alongside reading prior to departure. Grav=10428.8, ST=10428.9, Grav QC=10289.5
IN2021_E01 2021-11-09 03:33 [view ] Gravity Meter [view] Micro-g LaCoste AS-2 gravity meter event Alongside reading prior to departure. Grav=10428.8, ST=10428.9, Grav QC=10289.5
IN2021_E01 2021-11-09 03:38 [view ] Gravity Meter [view] Micro-g LaCoste AS-2 gravity meter event Alongside reading prior to departure. Grav=10428.8, ST=10428.9, Grav QC=10289.5
IN2021_E01 2021-11-14 02:02 [view ] Gravity Meter [view] GSM Micro-g LaCoste AS-2 gravity meter event Gravity meter off
IN2021_E02 2021-11-23 07:44 [view ] -40.5772 152.3658 Gravity Meter [view] Fault Micro-g LaCoste AS-2 gravity meter event Issue. VNC viewer error popped up and then I saw that Air-Sea GMSII was off?? 6:45pm local time
IN2021_E02 2021-11-23 08:44 [view ] -40.5410 152.4176 Gravity Meter [view] Reboot Micro-g LaCoste AS-2 gravity meter event Issue. VNC viewer error popped up and then I saw that Air-Sea GMSII was off?? 6:45pm local time
IN2021_E02 2021-11-23 09:43 [view ] -40.5573 152.5152 Gravity Meter [view] GSM Micro-g LaCoste AS-2 gravity meter event Gravity meter server crashed again. DAP/SIT looking at alternatives.
IN2021_E02 2021-11-28 00:01 [view ] Gravity Meter [view] GSM Micro-g LaCoste AS-2 gravity meter event gravity meter turned off
IN2021_T01 2021-06-10 06:15 [view ] -27.4165 153.1415 Gravity Meter [view] Start GSM_in2021_t01 Start Logging Gravity Meter
IN2021_T01 2021-06-23 02:07 [view ] -12.4718 130.8468 Gravity Meter [view] Stop GSM_in2021_t01 Shutdown Gravity meter alongside Darwin
IN2021_V01 2021-02-01 15:15 [view ] -52.6517 133.7003 Gravity Meter [view] Stop GSM_in2021_v01 Gravity meter shut down due to rough weather
IN2021_V01 2021-02-06 14:59 [view ] -61.2263 105.1385 Gravity Meter [view] Start GSM_in2021_v01 Gravity meter restarted in calm weather
IN2021_V01 2021-03-20 04:05 [view ] -53.8643 134.3925 Gravity Meter [view] Start GSM_in2021_v01 Restarted after rough weather
IN2021_V02 2021-04-14 01:09 [view ] -42.8863 147.3388 Gravity Meter [view] Start GSM_in2021_v02 Start Gravity Meter
IN2021_V02 2021-04-14 03:00 [view ] -42.8863 147.3388 Gravity Meter [view] Other GSM_in2021_v02 Pre voyage gravity reading Grav=10424.4, ST=10425.0, QC Grav=10291.3
IN2021_V02 2021-04-21 01:20 [view ] -47.0342 142.3188 Gravity Meter [view] Stop GSM_in2021_v02 Gravity Meter off and clamped for incoming weather
IN2021_V02 2021-04-24 01:27 [view ] -46.7715 141.7898 Gravity Meter [view] Start GSM_in2021_v02 Start Logging Gravity meter turned on after period of bad weather
IN2021_V02 2021-04-27 21:49 [view ] -42.8863 147.3388 Gravity Meter [view] Stop GSM_in2021_v02 Stop Logging Still reading Grav: 10425.1 ST: 10423.7 Grav QC: 10291.8
IN2022_V02 2022-03-26 05:05 [view ] Gravity Meter [view] GSM Micro-g LaCoste AS-2 gravity meter event Logging stopped as required
IN2022_V02 2022-03-29 08:20 [view ] Gravity Meter [view] GSM Micro-g LaCoste AS-2 gravity meter event Re-start gravity meter
IN2022_V02 2022-04-12 18:01 [view ] Gravity Meter [view] GSM Micro-g LaCoste AS-2 gravity meter event Gravity meter shutdown in bad weather meter clamped
IN2022_V02 2022-04-14 00:32 [view ] Gravity Meter [view] GSM Micro-g LaCoste AS-2 gravity meter event start gravity meter following period of bad weather
IN2022_V02 2022-04-19 00:53 [view ] Gravity Meter [view] GSM Micro-g LaCoste AS-2 gravity meter event Gravity meter shut down at wharf
IN2022_V06 2022-07-14 00:35 [view ] -27.3741 153.1648 Gravity Meter [view] GSM Micro-g LaCoste AS-2 gravity meter event 9089.8 cu, 9088.4 ST, 8973.6 QC GRAV
IN2022_V06 2022-07-29 23:29 [view ] Gravity Meter [view] GSM Micro-g LaCoste AS-2 gravity meter event Stop at docking at Brisbane International Cruise Terminal
IN2022_V07 2022-08-13 12:01 [view ] Gravity Meter [view] GSM Micro-g LaCoste AS-2 gravity meter event ASII started
IN2022_V07 2022-09-05 08:33 [view ] -15.0947 145.9084 Gravity Meter [view] GSM Micro-g LaCoste AS-2 gravity meter event Gravity meter PC crashed. PC continually crashes when rebooted. Troubleshooting.
IN2022_V08 2022-10-24 01:22 [view ] -13.4747 96.3653 Gravity Meter [view] GSM Micro-g LaCoste AS-2 gravity meter event Restart of gravity meter due to time inconsistency - 11days 3hrs, 58min 21sec behind utc. Reset time to time ntp server
IN2022_V08 2022-10-24 01:22 [view ] -13.4747 96.3653 Gravity Meter [view] GSM Micro-g LaCoste AS-2 gravity meter event Restart of gravity meter due to time inconsistency - 11days 3hrs, 58min 21sec behind utc. Reset time to time ntp server
IN2022_V08 2022-11-03 07:56 [view ] Gravity Meter [view] GSM Micro-g LaCoste AS-2 gravity meter event Gravity wharf tie. Wharf height = 3.78m at 1554 (local) / 0754 (utc). Gravity readings from AS2: ST=9381.3, Grav=9381.1, QC grav=9261.2
IN2023_V01 2023-02-01 19:33 [view ] -55.2969 93.7455 Gravity Meter [view] GSM Micro-g LaCoste AS-2 gravity meter event Shut down due to rough weather, hove to
IN2023_V01 2023-02-03 09:21 [view ] -57.1946 87.5179 Gravity Meter [view] GSM Micro-g LaCoste AS-2 gravity meter event Started backup after Hove To and bad weather
IN2023_V01 2023-02-16 02:01 [view ] -55.1152 94.3126 Gravity Meter [view] GSM Micro-g LaCoste AS-2 gravity meter event Screen frozen- cannot use mouse or keyoboard. Hard reboot of PC
IN2023_V01 2023-02-16 02:01 [view ] -55.1152 94.3126 Gravity Meter [view] GSM Micro-g LaCoste AS-2 gravity meter event Screen frozen
IN2023_V01 2023-02-16 02:08 [view ] -55.1012 94.3407 Gravity Meter [view] GSM Micro-g LaCoste AS-2 gravity meter event Gravity PC restarted
IN2023_V01 2023-02-16 02:17 [view ] -55.0836 94.3764 Gravity Meter [view] GSM Micro-g LaCoste AS-2 gravity meter event Meter unclamped and funcitoning normally
IN2023_V02 2023-03-22 16:45 [view ] Gravity Meter [view] GSM Micro-g LaCoste AS-2 gravity meter event Powered on the Gravity meter
IN2023_V02 2023-03-25 17:09 [view ] -43.1234 145.3058 Gravity Meter [view] GSM Micro-g LaCoste AS-2 gravity meter event Beam vaults up to 6 volts with spring tension and gravity difference between 9961(ST) 10545(Gravity)
IN2023_V02 2023-04-11 20:59 [view ] -43.5572 145.5389 Gravity Meter [view] GSM Micro-g LaCoste AS-2 gravity meter event
IN2023_V02 2023-04-11 21:40 [view ] -43.6345 145.6243 Gravity Meter [view] GSM Micro-g LaCoste AS-2 gravity meter event Restarted gravity meter after it displayed very erratic motion and had to be shutdown
IN2023_V02 2023-04-12 15:43 [view ] -43.4774 145.6721 Gravity Meter [view] Micro-g LaCoste AS-2 gravity meter event Gravity meter was moving very erratically again and has been shut down. Unclear as to what the problem is
IN2023_V02 2023-04-12 17:15 [view ] -43.4787 145.6711 Gravity Meter [view] GSM Micro-g LaCoste AS-2 gravity meter event Restarted gravity meter
IN2023_V02 2023-04-13 01:43 [view ] -43.5804 145.4445 Gravity Meter [view] GSM Micro-g LaCoste AS-2 gravity meter event Gravity meter was turned off due to an issue with the gimbal. It will remain off until the issue has been addressed.
IN2023_V02 2023-04-20 00:07 [view ] -43.3443 147.5292 Gravity Meter [view] GSM Micro-g LaCoste AS-2 gravity meter event On advice of Micro-g LaCoste, Rod (SIT) and Augustin (GSM) replaced the gyro with a spare gyro we had (that had a note saying possibly faulty 2016) and rebooted the system. The gyro failed immediately - erratic movement of the system - and the system was powered down and the original gyro put back in. Will seek further advice from Micro-g

Save this list as

NCMI Information and Data Centre  »  Applications  »  Data Trawler